Retour au catalogue

CZ-6A DEB

ActifSSO
NORAD 54332·DEBRIS·🇨🇳 China

Lancé Nov 11, 2022 depuis Taiyuan Satellite Launch Center

Loading…

Prochains Passages (prochaines 24 heures)

TLE

FraisSource: Space-Track

Époque: Sep 14, 2026, 11:51 UTC

1 54332U 22151CB  26257.49400925  .00001255  00000-0  54862-3 0  9994
2 54332  98.7665 276.4578 0040031  76.1064 284.4563 14.25185341198634

Suivez CZ-6A DEB en temps réel avec AllMySat

Download on the App Store